Location: Gerlach
(40.6516°N, 119.3568°W)
Time: 04:01:30
(UTC-07:00)

Explorer 11/Cluster Stage 4 - Pass Details

Date: 01 February 2023
Orbit: 466 x 1241 km, 28.8° (Epoch: 02 April)

Event Time Altitude Azimuth Distance (km) Brightness Sun altitude
Exits shadow 04:01:23 12° 174° (S) 3,018 9.5 -35.5°
Maximum altitude 04:04:13 14° 152° (SSE) 2,878 9.6 -34.9°
Drops below altitude 10° 04:08:01 10° 123° (ESE) 3,200 10.2 -34.2°
Sets 04:12:37 0° 101° (E) 4,145 11.3 -33.3°
